Location: Krasnoyarskiy Pitomnik
(51.1333°N, 71.6167°E)
Time: 11:09:45
(UTC+00:00)

Altair - Pass Details

Date: 22 April 2024
Orbit: 1501 x 1682 km, 47.2° (Epoch: 18 May)

Event Time Altitude Azimuth Distance (km) Brightness Sun altitude
Rises 16:36:03 0° 267° (W) 4,901 10.7 -17.9°
Reaches altitude 10° 16:39:14 10° 265° (W) 3,895 10.1 -18.2°
Maximum altitude 16:49:06 71° 184° (S) 1,683 7.5 -19.2°
Enters shadow 16:56:55 17° 105° (ESE) 3,239 8.8 -19.9°
